TimeCST,TemperatureF,Dew PointF,Humidity,Sea Level PressureIn,VisibilityMPH,Wind Direction,Wind SpeedMPH,Gust SpeedMPH,PrecipitationIn,Events,Conditions,WindDirDegrees,DateUTC
12:54 AM,26.1,12.9,58,29.97,10.0,South,8.1,-,N/A,,Clear,190,2012-12-12 06:54:00
1:54 AM,28.0,15.1,58,29.97,10.0,South,8.1,-,N/A,,Clear,190,2012-12-12 07:54:00
2:54 AM,30.0,16.0,56,29.97,10.0,SSW,8.1,-,N/A,,Clear,200,2012-12-12 08:54:00
3:54 AM,28.9,16.0,58,29.96,10.0,South,9.2,-,N/A,,Clear,180,2012-12-12 09:54:00
4:54 AM,30.9,16.0,54,29.95,10.0,South,12.7,-,N/A,,Clear,180,2012-12-12 10:54:00
5:54 AM,30.0,15.1,54,29.96,10.0,South,8.1,-,N/A,,Clear,170,2012-12-12 11:54:00
7:54 AM,28.9,15.1,56,30.00,10.0,South,12.7,-,N/A,,Clear,170,2012-12-12 13:54:00
8:54 AM,34.0,17.1,50,29.99,10.0,South,16.1,-,N/A,,Clear,180,2012-12-12 14:54:00
9:54 AM,39.9,17.1,40,29.98,10.0,South,24.2,28.8,N/A,,Clear,190,2012-12-12 15:54:00
10:54 AM,44.1,17.1,34,29.98,10.0,South,25.3,31.1,N/A,,Clear,190,2012-12-12 16:54:00
11:54 AM,48.0,16.0,28,29.96,10.0,South,26.5,34.5,N/A,,Clear,190,2012-12-12 17:54:00
12:54 PM,52.0,17.1,25,29.94,10.0,South,27.6,33.4,N/A,,Clear,190,2012-12-12 18:54:00
1:54 PM,54.0,16.0,22,29.91,10.0,South,27.6,35.7,N/A,,Clear,190,2012-12-12 19:54:00
2:54 PM,53.1,16.0,23,29.90,10.0,South,26.5,34.5,N/A,,Clear,190,2012-12-12 20:54:00
3:54 PM,52.0,16.0,24,29.91,10.0,South,20.7,29.9,N/A,,Clear,180,2012-12-12 21:54:00
4:54 PM,48.9,15.1,26,29.89,10.0,South,15.0,-,N/A,,Clear,180,2012-12-12 22:54:00
6:54 PM,43.0,15.1,32,29.94,10.0,South,13.8,-,N/A,,Clear,180,2012-12-13 00:54:00
7:54 PM,43.0,15.1,32,29.94,10.0,South,18.4,-,N/A,,Clear,180,2012-12-13 01:54:00
8:54 PM,39.9,14.0,35,29.96,10.0,South,15.0,-,N/A,,Clear,170,2012-12-13 02:54:00
9:54 PM,39.9,15.1,36,29.96,10.0,SSE,15.0,-,N/A,,Clear,160,2012-12-13 03:54:00
10:54 PM,37.9,14.0,38,29.96,10.0,SSE,12.7,-,N/A,,Clear,160,2012-12-13 04:54:00
11:54 PM,37.0,15.1,41,29.96,10.0,South,13.8,-,N/A,,Clear,170,2012-12-13 05:54:00